This is the latest recevied weather packets stored in our database for station/object IZ7EXI-13. If no packets are shown the sender has not sent any weather packets the latest 10 day(s).
| Time | Temp. | Humidity | Pressure | Rain* | Wind** | Luminosity | Snow |
|---|---|---|---|---|---|---|---|
| 1787940271 | 35° C | 31% | 1015.1 hPa | - | - | - | - |
| 1787939380 | 35° C | 33% | 1015 hPa | - | - | - | - |
| 1787938470 | 35.56° C | 34% | 1014.8 hPa | - | - | - | - |
| 1787937570 | 35.56° C | 33% | 1014.7 hPa | - | - | - | - |
| 1787936670 | 36.11° C | 32% | 1014.8 hPa | - | - | - | - |
| 1787935770 | 36.67° C | 31% | 1015 hPa | - | - | - | - |
| 1787934869 | 37.22° C | 30% | 1015.1 hPa | - | - | - | - |
| 1787934013 | 38.33° C | 29% | 1015.3 hPa | - | - | - | - |
| 1787934011 | 38.33° C | 29% | 1015.3 hPa | - | - | - | - |
| 1787933969 | 38.33° C | 29% | 1015.3 hPa | - | - | - | - |
| 1787933066 | 38.89° C | 31% | 1015.4 hPa | - | - | - | - |
| 1787932163 | 39.44° C | 28% | 1015.5 hPa | - | - | - | - |
| 1787931296 | 39.44° C | 24% | 1015.7 hPa | - | - | - | - |
| 1787931263 | 39.44° C | 24% | 1015.7 hPa | - | - | - | - |
| 1787930363 | 38.89° C | 23% | 1015.6 hPa | - | - | - | - |
| 1787929462 | 38.89° C | 25% | 1015.7 hPa | - | - | - | - |
| 1787928595 | 38.89° C | 28% | 1015.8 hPa | - | - | - | - |
| 1787928562 | 38.89° C | 28% | 1015.8 hPa | - | - | - | - |
| 1787927695 | 38.33° C | 30% | 1015.9 hPa | - | - | - | - |
| 1787927662 | 38.33° C | 30% | 1015.9 hPa | - | - | - | - |
| 1787926796 | 38.89° C | 32% | 1016.1 hPa | - | - | - | - |
| 1787926762 | 38.89° C | 32% | 1016.1 hPa | - | - | - | - |
| 1787925893 | 38.89° C | 33% | 1016.3 hPa | - | - | - | - |
| 1787925862 | 38.89° C | 33% | 1016.3 hPa | - | - | - | - |
| 1787924997 | 39.44° C | 31% | 1016.4 hPa | - | - | - | - |
* Rain since midnight (hover to see other rain measurements)
** Current wind speed in m/s (hover to see current wind gust speed)